Terug naar catalogus

METEOR 2-17 DEB

ActiefPO
NORAD 35373·DEBRIS·🇷🇺 Russia

Gelanceerd Jan 30, 1988 vanaf Plesetsk Cosmodrome

Loading…

Volgende Passages (komende 24 uur)

TLE

VerouderendSource: Space-Track

Epoch: Sep 6, 2026, 02:52 UTC

1 35373U 88005AH  26249.11997393  .00001339  00000-0  85352-3 0  9999
2 35373  82.5278 189.1896 0031712  33.9018 326.4170 14.02727151603636

Volg METEOR 2-17 DEB in realtime met AllMySat

Download on the App Store